When you browse on this site, cookies collect data to enhance your experience and personalize the content and advertising you see.
Visit our Privacy Policy to learn more. By continuing to use the site, you agree to this use of cookies and data.
  • In Hungary
  • List of Countries
  • For 7 days
  • Water Temperature
  • Weather Map
  • News
  • Weather Widgets
  • user-avatar
    Login

    Hourly Weather Hvoschevskiy

    Today, 26 February, Wednesday

    Time Temperature Precipitation Wind Pressure Humidity
    00:00 -3°C° 0 mm 4 mps 734 mmHg 83%
    01:00 -3°C° 0 mm 4 mps 733 mmHg 85%
    02:00 -3°C° 0 mm 4 mps 733 mmHg 92%
    03:00 -2°C° 0 mm 5 mps 732 mmHg 93%
    04:00 -2°C° 0 mm 5 mps 732 mmHg 95%
    05:00 -2°C° 0 mm 5 mps 731 mmHg 96%
    06:00 -2°C° 0.2 mm 5 mps 731 mmHg 96%
    07:00 -3°C° 0.2 mm 6 mps 730 mmHg 96%
    08:00 -2°C° 0.2 mm 6 mps 730 mmHg 96%
    09:00 -2°C° 0.8 mm 6 mps 730 mmHg 97%
    10:00 -2°C° 0.8 mm 6 mps 729 mmHg 97%
    11:00 -2°C° 0.8 mm 6 mps 729 mmHg 98%
    12:00 -2°C° 0.5 mm 6 mps 729 mmHg 98%
    13:00 -1°C° 0.5 mm 5 mps 729 mmHg 98%
    14:00 0°C° 0.5 mm 5 mps 728 mmHg 98%
    15:00 0°C° 0.1 mm 5 mps 728 mmHg 97%
    16:00 0°C° 0.1 mm 5 mps 728 mmHg 97%
    17:00 0°C° 0.1 mm 5 mps 728 mmHg 96%
    18:00 0°C° 0 mm 4 mps 728 mmHg 96%
    19:00 0°C° 0 mm 4 mps 729 mmHg 97%
    20:00 +1°C° 0 mm 3 mps 729 mmHg 97%
    21:00 +1°C° 0.1 mm 3 mps 729 mmHg 97%
    22:00 +1°C° 0.1 mm 3 mps 728 mmHg 97%
    23:00 +2°C° 0.1 mm 2 mps 728 mmHg 98%

    Tomorrow, 27 February, Thursday

    Time Temperature Precipitation Wind Pressure Humidity
    00:00 +1°C° 0.2 mm 3 mps 728 mmHg 97%
    01:00 +1°C° 0.2 mm 3 mps 728 mmHg 97%
    02:00 +1°C° 0.2 mm 3 mps 728 mmHg 97%
    03:00 0°C° 0.1 mm 4 mps 727 mmHg 97%
    04:00 0°C° 0.1 mm 4 mps 727 mmHg 97%
    05:00 0°C° 0.1 mm 5 mps 726 mmHg 97%
    06:00 0°C° 0 mm 5 mps 726 mmHg 96%
    07:00 -1°C° 0 mm 6 mps 726 mmHg 96%
    08:00 -1°C° 0 mm 6 mps 726 mmHg 96%
    09:00 -1°C° 0 mm 6 mps 726 mmHg 96%
    10:00 +1°C° 0 mm 6 mps 726 mmHg 96%
    11:00 +1°C° 0 mm 6 mps 726 mmHg 97%
    12:00 +1°C° 0 mm 5 mps 726 mmHg 97%
    13:00 +1°C° 0 mm 5 mps 726 mmHg 96%
    14:00 +3°C° 0 mm 4 mps 726 mmHg 96%
    15:00 +1°C° 0.2 mm 4 mps 726 mmHg 96%
    16:00 +2°C° 0.2 mm 3 mps 726 mmHg 97%
    17:00 +2°C° 0.2 mm 3 mps 726 mmHg 97%
    18:00 +1°C° 0 mm 3 mps 727 mmHg 95%
    19:00 +1°C° 0 mm 3 mps 727 mmHg 94%
    20:00 +1°C° 0 mm 3 mps 728 mmHg 93%
    21:00 +1°C° 0 mm 3 mps 728 mmHg 92%
    22:00 +1°C° 0 mm 2 mps 728 mmHg 91%
    23:00 +1°C° 0 mm 2 mps 728 mmHg 90%

    Day after tomorrow, 28 February, Friday

    Time Temperature Precipitation Wind Pressure Humidity
    00:00 +1°C° 0 mm 2 mps 728 mmHg 91%
    01:00 +1°C° 0 mm 2 mps 728 mmHg 92%
    02:00 +1°C° 0 mm 2 mps 728 mmHg 93%
    03:00 -1°C° 0 mm 2 mps 728 mmHg 93%
    04:00 -1°C° 0 mm 2 mps 728 mmHg 93%
    05:00 -1°C° 0 mm 2 mps 727 mmHg 92%
    06:00 -1°C° 0.1 mm 2 mps 727 mmHg 91%
    07:00 -1°C° 0.1 mm 2 mps 728 mmHg 90%
    08:00 -1°C° 0.1 mm 3 mps 728 mmHg 89%
    09:00 0°C° 0 mm 3 mps 728 mmHg 86%
    10:00 0°C° 0 mm 3 mps 728 mmHg 83%
    11:00 0°C° 0 mm 4 mps 728 mmHg 81%
    12:00 0°C° 0 mm 4 mps 729 mmHg 77%
    13:00 0°C° 0 mm 4 mps 729 mmHg 74%
    14:00 +1°C° 0 mm 5 mps 730 mmHg 70%
    15:00 0°C° 0 mm 4 mps 731 mmHg 72%
    16:00 -1°C° 0 mm 4 mps 731 mmHg 74%
    17:00 -1°C° 0 mm 4 mps 732 mmHg 76%
    18:00 -2°C° 0 mm 4 mps 732 mmHg 77%
    19:00 -1°C° 0 mm 3 mps 733 mmHg 79%
    20:00 -2°C° 0 mm 3 mps 734 mmHg 80%
    21:00 -2°C° 0 mm 3 mps 734 mmHg 80%
    22:00 -2°C° 0 mm 3 mps 734 mmHg 80%
    23:00 -2°C° 0 mm 3 mps 734 mmHg 80%

    29 February, Saturday

    Time Temperature Precipitation Wind Pressure Humidity
    00:00 -2°C° 0 mm 3 mps 735 mmHg 79%
    01:00 -2°C° 0 mm 3 mps 735 mmHg 79%
    02:00 -2°C° 0 mm 3 mps 735 mmHg 78%
    03:00 -2°C° 0 mm 3 mps 735 mmHg 79%
    04:00 -2°C° 0 mm 2 mps 735 mmHg 80%
    05:00 -2°C° 0 mm 2 mps 735 mmHg 80%
    06:00 -2°C° 0 mm 2 mps 735 mmHg 79%
    07:00 -1°C° 0 mm 2 mps 736 mmHg 78%
    08:00 -1°C° 0 mm 2 mps 736 mmHg 77%
    09:00 +1°C° 0 mm 2 mps 736 mmHg 73%
    10:00 +1°C° 0 mm 2 mps 736 mmHg 70%
    11:00 +2°C° 0 mm 2 mps 736 mmHg 67%
    12:00 +2°C° 0 mm 2 mps 736 mmHg 65%
    13:00 +3°C° 0 mm 2 mps 736 mmHg 63%
    14:00 +3°C° 0 mm 2 mps 736 mmHg 61%
    15:00 +2°C° 0 mm 2 mps 736 mmHg 66%
    16:00 +3°C° 0 mm 1 mps 736 mmHg 70%
    17:00 +2°C° 0 mm 1 mps 737 mmHg 74%
    18:00 +2°C° 0 mm 1 mps 737 mmHg 76%
    19:00 +1°C° 0 mm 1 mps 738 mmHg 78%
    20:00 -1°C° 0 mm 2 mps 738 mmHg 80%
    21:00 -1°C° 0 mm 2 mps 739 mmHg 81%
    22:00 0°C° 0 mm 1 mps 739 mmHg 83%
    23:00 0°C° 0 mm 1 mps 739 mmHg 84%

    1 March, Sunday

    Time Temperature Precipitation Wind Pressure Humidity
    00:00 -2°C° 0 mm 2 mps 740 mmHg 85%
    01:00 -2°C° 0 mm 2 mps 740 mmHg 87%
    02:00 -2°C° 0 mm 2 mps 741 mmHg 88%
    03:00 -3°C° 0 mm 2 mps 741 mmHg 88%
    04:00 -3°C° 0 mm 2 mps 742 mmHg 88%
    05:00 -3°C° 0 mm 2 mps 742 mmHg 88%
    06:00 -3°C° 0 mm 2 mps 743 mmHg 85%
    07:00 0°C° 0 mm 1 mps 743 mmHg 82%
    08:00 0°C° 0 mm 1 mps 744 mmHg 78%
    09:00 +1°C° 0 mm 1 mps 744 mmHg 72%
    10:00 +2°C° 0 mm 1 mps 744 mmHg 66%
    11:00 +3°C° 0 mm 1 mps 744 mmHg 60%
    12:00 +3°C° 0 mm 1 mps 744 mmHg 59%
    13:00 +3°C° 0 mm 2 mps 744 mmHg 58%
    14:00 +3°C° 0 mm 2 mps 744 mmHg 58%
    15:00 +2°C° 0 mm 2 mps 744 mmHg 64%
    16:00 +1°C° 0 mm 2 mps 744 mmHg 71%
    17:00 -1°C° 0 mm 2 mps 744 mmHg 77%
    18:00 -1°C° 0 mm 2 mps 745 mmHg 80%
    19:00 -1°C° 0 mm 3 mps 745 mmHg 82%
    20:00 -2°C° 0 mm 3 mps 745 mmHg 85%
    21:00 -2°C° 0 mm 3 mps 745 mmHg 86%
    22:00 -2°C° 0 mm 4 mps 745 mmHg 87%
    23:00 -2°C° 0 mm 4 mps 745 mmHg 88%

    2 March, Monday

    Time Temperature Precipitation Wind Pressure Humidity
    00:00 -3°C° 0 mm 4 mps 745 mmHg 90%
    01:00 -3°C° 0 mm 4 mps 745 mmHg 92%
    02:00 -3°C° 0 mm 4 mps 745 mmHg 94%
    03:00 -3°C° 0 mm 4 mps 744 mmHg 93%
    04:00 -4°C° 0 mm 5 mps 744 mmHg 92%
    05:00 -4°C° 0 mm 5 mps 744 mmHg 92%
    06:00 -4°C° 0 mm 5 mps 744 mmHg 91%
    07:00 -3°C° 0 mm 6 mps 744 mmHg 91%
    08:00 -3°C° 0 mm 6 mps 744 mmHg 90%
    09:00 -3°C° 0 mm 6 mps 744 mmHg 87%
    10:00 -2°C° 0 mm 6 mps 744 mmHg 84%
    11:00 -2°C° 0 mm 7 mps 743 mmHg 82%
    12:00 -1°C° 0 mm 6 mps 743 mmHg 79%
    13:00 -1°C° 0 mm 6 mps 743 mmHg 77%
    14:00 +1°C° 0 mm 6 mps 743 mmHg 75%
    15:00 -1°C° 0 mm 6 mps 742 mmHg 77%
    16:00 -1°C° 0 mm 6 mps 742 mmHg 80%
    17:00 -1°C° 0 mm 6 mps 742 mmHg 83%
    18:00 0°C° 0 mm 5 mps 742 mmHg 83%
    19:00 -1°C° 0 mm 5 mps 742 mmHg 84%
    20:00 -1°C° 0 mm 5 mps 742 mmHg 85%
    21:00 -1°C° 0 mm 5 mps 742 mmHg 85%
    22:00 -1°C° 0 mm 5 mps 743 mmHg 85%
    23:00 -1°C° 0 mm 5 mps 743 mmHg 86%
    Show more